International Falls, MN

2:12 AM CDT on September 28, 2016 (GMT -0500)
Falls International

Weather History for KINL - September, 2012

Change the Weather History Date:

Thursday, September 13, 2012

  Actual Average Record
Temperature  
Mean Temperature 48 °F 55 °F  
Max Temperature 63 °F 67 °F 89 °F (1952)
Min Temperature 32 °F 43 °F 25 °F (2014)
Degree Days  
Heating Degree Days 17 11  
Month to date heating degree days 93 110  
Since 1 July heating degree days 219 291  
Cooling Degree Days 0 0  
Month to date cooling degree days 4 9  
Year to date cooling degree days 222 190  
Moisture  
Dew Point 37 °F    
Average Humidity 65    
Maximum Humidity 100    
Minimum Humidity 30    
Precipitation  
Precipitation 0.00 in 0.10 in 1.39 in (1909)
Month to date precipitation 0.22 1.31  
Year to date precipitation 19.44 18.27  
Snow  
Snow 0.00 in 0.00 in 0.00 in (2002)
Month to date snowfall 0.0 0.0  
Since 1 July snowfall 0.0 0.0  
Since 1 September snowfall 0.0 0.0  
Snow Depth 0.00 in    
Sea Level Pressure  
Sea Level Pressure 30.26 in    
Wind  
Wind Speed 8 mph (WNW)    
Max Wind Speed 22 mph    
Max Gust Speed 28 mph    
Visibility 10 miles    
Events      
T = Trace of Precipitation, MM = Missing Value Source: NWS Daily Summary

Daily Weather History Graph

Daily Weather History Graph

Search for Another Location

Airport or City:

Trip Planner

Search our weather history database for the weather conditions in past years. The results will help you decide how hot, cold, wet, or windy it might be!

Date:

Astronomy

Sep. 13, 2012 Rise Set
Actual Time 6:48 AM CDT 7:29 PM CDT
Civil Twilight 6:16 AM CDT 8:00 PM CDT
Nautical Twilight 5:38 AM CDT 8:38 PM CDT
Astronomical Twilight 4:59 AM CDT 9:18 PM CDT
Moon 3:59 AM CDT (9/13) 5:58 PM CDT (9/13)
Length of Visible Light 13h 44m
Length of Day
12h 41m
Waning Crescent, 7% of the Moon is Illuminated
Sep 13
Waning Crescent
Sep 15
New
Sep 22
First Quarter
Sep 29
Full
Oct 8
Last Quarter

Hourly Weather History & Observations

Time (CDT) Temp. Windchill Dew Point Humidity Pressure Visibility Wind Dir Wind Speed Gust Speed Precip Events Conditions
12:55 AM 48.0 °F - 35.1 °F 61% 30.13 in 10.0 mi West 5.8 mph - N/A   Clear
1:55 AM 46.9 °F - 35.1 °F 63% 30.15 in 10.0 mi West 8.1 mph - N/A   Overcast
2:55 AM 46.9 °F - 36.0 °F 66% 30.16 in 10.0 mi West 6.9 mph - N/A   Overcast
3:55 AM 48.0 °F - 37.0 °F 66% 30.17 in 10.0 mi West 6.9 mph - N/A   Overcast
4:55 AM 48.9 °F - 37.0 °F 64% 30.18 in 10.0 mi West 4.6 mph - N/A   Overcast
5:55 AM 48.0 °F - 36.0 °F 63% 30.21 in 10.0 mi WSW 4.6 mph - N/A   Overcast
6:55 AM 48.0 °F - 36.0 °F 63% 30.22 in 10.0 mi West 5.8 mph - N/A   Overcast
7:55 AM 46.0 °F 41.4 °F 36.0 °F 68% 30.25 in 10.0 mi West 9.2 mph - N/A   Mostly Cloudy
8:55 AM 50.0 °F - 37.9 °F 63% 30.26 in 10.0 mi West 9.2 mph - N/A   Clear
9:55 AM 54.0 °F - 41.0 °F 62% 30.27 in 10.0 mi West 9.2 mph - N/A   Clear
10:55 AM 57.9 °F - 39.0 °F 49% 30.28 in 10.0 mi WNW 12.7 mph 19.6 mph N/A   Clear
11:55 AM 59.0 °F - 35.1 °F 41% 30.28 in 10.0 mi NW 16.1 mph 26.5 mph N/A   Clear
12:55 PM 62.1 °F - 35.1 °F 37% 30.27 in 10.0 mi NW 16.1 mph 23.0 mph N/A   Clear
1:55 PM 61.0 °F - 35.1 °F 38% 30.27 in 10.0 mi NW 9.2 mph 23.0 mph N/A   Partly Cloudy
2:55 PM 62.1 °F - 30.9 °F 31% 30.27 in 10.0 mi West 18.4 mph 27.6 mph N/A   Clear
3:55 PM 61.0 °F - 36.0 °F 39% 30.27 in 10.0 mi NW 13.8 mph 21.9 mph N/A   Clear
4:55 PM 57.9 °F - 36.0 °F 44% 30.28 in 10.0 mi NW 12.7 mph 20.7 mph N/A   Scattered Clouds
5:55 PM 57.9 °F - 37.9 °F 47% 30.28 in 10.0 mi NW 13.8 mph - N/A   Clear
6:55 PM 55.0 °F - 39.9 °F 57% 30.30 in 10.0 mi NW 9.2 mph - N/A   Partly Cloudy
7:55 PM 50.0 °F - 41.0 °F 71% 30.32 in 10.0 mi WNW 5.8 mph - N/A   Clear
8:55 PM 48.0 °F - 41.0 °F 77% 30.34 in 10.0 mi NW 3.5 mph - N/A   Partly Cloudy
9:55 PM 44.1 °F - 41.0 °F 89% 30.35 in 10.0 mi Calm Calm - N/A   Clear
10:55 PM 37.9 °F - 37.0 °F 97% 30.35 in 10.0 mi Calm Calm - N/A   Clear
11:55 PM 34.0 °F - 33.1 °F 96% 30.36 in 10.0 mi Calm Calm - N/A   Clear